Regional Weather Roundup
Issued by NWS Sioux Falls, SD

Home | Current Version | Previous Version | Text Only | Print | Product List | Glossary Off
Versions: 1 2 3 4 5 6 7 8 9 10 11 12 13 14 15 16 17 18 19 20 21 22 23 24 25 26 27 28 29 30 31 32 33 34 35 36 37 38 39 40 41 42 43 44 45 46 47 48 49 50

000
ASUS43 KFSD 221810
RWRFSD

WEATHER ROUNDUP FOR SE SOUTH DAKOTA/SW MINNESOTA/NW IOWA
NATIONAL WEATHER SERVICE SIOUX FALLS SD
100 PM CDT MON JUL 22 2019

NOTE: "FAIR" INDICATES FEW OR NO CLOUDS BELOW 12,000 FEET WITH NO
SIGNIFICANT WEATHER AND OR OBSTRUCTIONS TO VISIBILITY.


SDZ038>040-050-052>070-221900-
SOUTHEAST SOUTH DAKOTA

CITY           SKY/WX    TMP DP  RH WIND       PRES   REMARKS
BROOKINGS      SUNNY     71  51  49 NE9       30.33S
CHAMBERLAIN    MOSUNNY   76  61  60 NW6       30.34F
6HR MIN TEMP:  59; 6HR MAX TEMP:  76;

HURON          MOSUNNY   75  59  57 NE6       30.32F
6HR MIN TEMP:  58; 6HR MAX TEMP:  76;

MADISON        FAIR      70  57  64 N8        30.34S
MITCHELL       FAIR      75  58  55 NE9       30.33S
6HR MIN TEMP:  60; 6HR MAX TEMP:  77;

SIOUX FALLS    MOSUNNY   76  55  48 NE12      30.31F
6HR MIN TEMP:  61; 6HR MAX TEMP:  76;

WINNER         FAIR      77  53  43 E5        30.35F
YANKTON        MOSUNNY   76  57  51 N12       30.31F
$$

MNZ071-072-080-081-089-090-097-098-221900-
SOUTHWEST MINNESOTA

CITY           SKY/WX    TMP DP  RH WIND       PRES   REMARKS
FAIRMONT       SUNNY     71  52  50 NE9       30.28S
JACKSON        SUNNY     70  50  49 NE10G20   30.30S
LUVERNE        SUNNY     70  48  46 N10G17    30.32S
MARSHALL       MOSUNNY   72  50  45 VRB5      30.31S
6HR MIN TEMP:  58; 6HR MAX TEMP:  72;

MONTEVIDEO     MOSUNNY   73  48  40 N6        30.30F
PIPESTONE      MOSUNNY   72  50  46 NE9       30.33S
REDWOOD FALLS  PTSUNNY   73  52  47 N5        30.28F
WINDOM         SUNNY     72  48  43 NE12      30.30R
WORTHINGTON    MOSUNNY   70  53  54 N10       30.31S
$$

IAZ001>003-012>014-020>022-031-032-NEZ013-014-SDZ071-221900-
NORTHWEST IOWA

CITY           SKY/WX    TMP DP  RH WIND       PRES   REMARKS
CHEROKEE       PTSUNNY   74  55  51 N10G17    30.28S
DENISON        MOSUNNY   73  57  56 N13G20    30.28S
ESTHERVILLE    MOSUNNY   71  52  50 N18       30.28S
LE MARS        MOSUNNY   75  57  53 N10G18    30.28F
MAURICE        FAIR      73  57  56 N14       30.29S
SHELDON        PTSUNNY   73  59  60 N10G18    30.28F
SIOUX CITY     PTSUNNY   75  58  55 NE12G17   30.29S
6HR MIN TEMP:  60; 6HR MAX TEMP:  77;

SPENCER        MOSUNNY   75  55  49 N16G24    30.28
6HR MIN TEMP:  60; 6HR MAX TEMP:  76;

STORM LAKE       N/A     72  57  60 N14       30.25S
$$

ABBREVIATIONS USED IN REMARKS
   TC - TEMPERATURE IN CELSIUS
  WCI - WIND CHILL INDEX
   HX - HEAT INDEX
  VSB - VISIBILITY




USA.gov is the U.S. government's official web portal to all federal, state and local government web resources and services.